FW7163 Weather Reports


Display with metric or nautical units.
time (UTC)temp
F
wind
direction
speed
MPH
gust
MPH
rain 1hr
in
rain 24hr
in
rain mn
in
humidity
%
barometer
mb
20260507113045 27 72 0.0 0.0 0.00 0.00 0.00 82 1010.4
20260507111539 27 72 0.0 2.0 0.00 0.00 0.00 81 1010.4
20260507110049 27 72 0.0 3.0 0.00 0.00 0.00 81 1010.5
20260507104546 26 72 0.0 0.0 0.00 0.00 0.00 80 1010.6
20260507103050 25 72 0.0 0.0 0.00 0.00 0.00 77 1010.6
20260507101533 26 72 0.0 0.0 0.00 0.00 0.00 76 1010.7
20260507100031 26 72 1.0 3.0 0.00 0.00 0.00 75 1010.8
20260507094531 27 72 1.0 3.0 0.00 0.00 0.00 73 1010.8
20260507093028 27 72 1.0 2.0 0.00 0.00 0.00 72 1010.8
20260507091535 27 72 1.0 2.0 0.00 0.00 0.00 72 1010.8
20260507090032 27 72 1.0 3.0 0.00 0.00 0.00 69 1010.8
20260507084538 27 72 0.0 0.0 0.00 0.00 0.00 67 1010.8
20260507083021 29 72 0.0 3.0 0.00 0.00 0.00 67 1010.8
20260507081520 29 73 0.0 2.0 0.00 0.00 0.00 70 1010.8
20260507080019 28 73 1.0 2.0 0.00 0.00 0.00 69 1010.8
20260507074516 28 73 2.0 4.0 0.00 0.00 0.00 65 1010.9
20260507073012 29 73 4.0 5.0 0.00 0.00 0.00 61 1010.8
20260507071512 30 72 4.0 5.0 0.00 0.00 0.00 64 1010.8
20260507070011 31 69 4.0 6.0 0.00 0.00 0.00 61 1010.9
20260507064505 31 105 2.0 3.0 0.00 0.00 0.00 62 1010.9
20260507063005 31 105 1.0 4.0 0.00 0.00 0.00 60 1010.9
20260507061601 32 105 3.0 6.0 0.00 0.00 0.00 56 1010.9
20260507054613 33 105 6.0 7.0 0.00 0.00 0.00 56 1010.9
20260507053105 34 105 5.0 7.0 0.00 0.00 0.00 53 1011.0
20260507051556 35 105 5.0 8.0 0.00 0.00 0.00 53 1011.0
20260507050051 36 105 7.0 9.0 0.00 0.00 0.00 51 1011.1
20260507044553 37 105 7.0 9.0 0.00 0.00 0.00 49 1011.1
20260507043044 37 104 7.0 9.0 0.00 0.00 0.00 49 1011.1
20260507041558 36 103 7.0 8.0 0.00 0.00 0.00 51 1011.2
20260507040044 36 103 7.0 8.0 0.00 0.00 0.00 50 1011.2
20260507034543 36 103 6.0 7.0 0.00 0.00 0.00 48 1011.2
20260507033043 39 103 7.0 8.0 0.00 0.00 0.00 44 1011.3
20260507031542 41 95 7.0 9.0 0.00 0.00 0.00 41 1011.3
20260507030041 39 90 6.0 7.0 0.00 0.00 0.00 43 1011.2
20260507024541 41 90 3.0 6.0 0.00 0.00 0.00 39 1011.1
20260507023040 43 90 6.0 8.0 0.00 0.00 0.00 37 1011.2
20260507021539 44 23 4.0 5.0 0.00 0.00 0.00 37 1011.1
20260507020045 46 21 5.0 7.0 0.00 0.00 0.00 32 1011.2
20260507014547 50 345 3.0 4.0 0.00 0.00 0.00 29 1011.2
20260507013044 51 345 4.0 8.0 0.00 0.00 0.00 27 1011.3
20260507011542 51 329 4.0 9.0 0.00 0.00 0.00 27 1011.3
20260507010043 51 327 8.0 13.0 0.00 0.00 0.00 26 1011.4
20260507004533 52 325 7.0 13.0 0.00 0.00 0.00 26 1011.5
20260507003030 52 315 9.0 13.0 0.00 0.00 0.00 26 1011.8
20260507001548 52 330 10.0 15.0 0.00 0.00 0.00 26 1011.9
20260507000032 52 306 8.0 15.0 0.00 0.00 0.00 27 1012.1
20260506234526 52 355 12.0 15.0 0.00 0.00 0.00 28 1012.2
20260506233025 52 331 7.0 19.0 0.00 0.00 0.00 28 1012.2
20260506231523 52 317 9.0 15.0 0.00 0.00 0.00 28 1012.3
20260506230022 52 328 9.0 16.0 0.00 0.00 0.00 29 1012.5
20260506224519 52 275 10.0 17.0 0.00 0.00 0.00 30 1012.6
20260506223016 52 324 13.0 18.0 0.00 0.00 0.00 30 1012.8
20260506221513 51 275 9.0 16.0 0.00 0.00 0.00 31 1013.0
20260506220011 52 340 13.0 19.0 0.00 0.00 0.00 32 1013.3
20260506214509 51 286 10.0 21.0 0.00 0.00 0.00 32 1013.6
20260506213006 51 292 12.0 20.0 0.00 0.00 0.00 33 1013.9
20260506211505 50 294 11.0 21.0 0.00 0.00 0.00 33 1014.1
20260506210004 51 329 15.0 23.0 0.00 0.00 0.00 33 1014.2
20260506204601 50 315 9.0 19.0 0.00 0.00 0.00 34 1014.3
20260506203057 50 279 13.0 23.0 0.00 0.00 0.00 33 1014.4
20260506201556 50 282 12.0 21.0 0.00 0.00 0.00 35 1014.8
20260506200054 49 313 13.0 24.0 0.00 0.00 0.00 34 1015.0
20260506194550 49 299 12.0 21.0 0.00 0.00 0.00 35 1015.0
20260506193052 48 302 11.0 22.0 0.00 0.00 0.00 37 1015.3
20260506191545 48 309 11.0 23.0 0.00 0.00 0.00 38 1015.5
20260506190043 47 296 16.0 22.0 0.00 0.00 0.00 39 1015.6
20260506184541 47 301 15.0 25.0 0.00 0.00 0.00 40 1015.7
20260506183038 46 314 13.0 24.0 0.00 0.00 0.00 41 1016.1
20260506181543 45 347 6.0 23.0 0.00 0.00 0.00 43 1016.4
20260506180032 45 300 10.0 21.0 0.00 0.00 0.00 44 1016.8
20260506174534 45 323 12.0 23.0 0.00 0.00 0.00 44 1016.8
20260506173047 44 288 9.0 19.0 0.00 0.00 0.00 45 1017.1
20260506171528 43 284 11.0 19.0 0.00 0.00 0.00 47 1017.2
20260506170026 43 327 14.0 19.0 0.00 0.00 0.00 46 1017.3
20260506164524 43 294 12.0 20.0 0.00 0.00 0.00 45 1017.5
20260506163027 42 311 8.0 17.0 0.00 0.00 0.00 47 1017.7
20260506161520 41 279 9.0 19.0 0.00 0.00 0.00 48 1017.7
20260506160014 41 335 12.0 19.0 0.00 0.00 0.00 49 1017.6
20260506154513 41 297 15.0 19.0 0.00 0.00 0.00 48 1017.8
20260506153010 41 294 16.0 25.0 0.00 0.00 0.00 50 1017.9
20260506151509 40 327 15.0 25.0 0.00 0.00 0.00 52 1017.9
20260506150013 40 313 18.0 23.0 0.00 0.00 0.00 52 1018.0
20260506144505 39 293 9.0 16.0 0.00 0.00 0.00 57 1018.1
20260506143002 39 317 12.0 16.0 0.00 0.00 0.00 58 1018.2
20260506141603 38 309 12.0 18.0 0.00 0.00 0.00 60 1018.3
20260506140056 37 298 11.0 15.0 0.00 0.00 0.00 64 1018.3
20260506134552 36 323 9.0 12.0 0.00 0.00 0.00 70 1018.3
20260506133101 35 293 8.0 11.0 0.00 0.00 0.00 74 1018.2
20260506131543 32 288 5.0 8.0 0.00 0.00 0.00 80 1018.2
20260506130040 29 310 3.0 5.0 0.00 0.00 0.00 81 1018.2
20260506124538 28 37 1.0 3.0 0.00 0.00 0.00 80 1018.1
20260506123037 28 38 2.0 3.0 0.00 0.00 0.00 78 1018.0
20260506121534 27 38 2.0 3.0 0.00 0.00 0.00 78 1017.9
20260506120033 27 39 0.0 0.0 0.00 0.00 0.00 76 1017.7
20260506114539 27 39 0.0 0.0 0.00 0.00 0.00 71 1017.6